Regional Weather Roundup
Issued by NWS San Angelo, TX

Home | Current Version | Previous Version | Text Only | Print | Product List | Glossary On
Versions: 1 2 3 4 5 6 7 8 9 10 11 12 13 14 15 16 17 18 19 20 21 22 23 24 25 26 27 28 29 30 31 32 33 34 35 36 37 38 39 40 41 42 43 44 45 46 47 48 49 50
000
ASUS44 KSJT 241715
RWRSJT
WEST CENTRAL TEXAS REGIONAL WEATHER ROUNDUP
NATIONAL WEATHER SERVICE SAN ANGELO TX
1200 PM CDT FRI MAY 24 2019

NOTE: "FAIR" INDICATES FEW OR NO CLOUDS BELOW 12,000 FEET WITH NO
SIGNIFICANT WEATHER AND/OR OBSTRUCTIONS TO VISIBILITY.

TXZ049-054-064>066-071>073-076>078-098-099-113-114-127-128-139-140-
154-155-168>170-241800
...LOCATIONS ACROSS WEST CENTRAL TEXAS...

CITY           SKY/WX    TMP DP  RH WIND       PRES   REMARKS
SAN ANGELO     CLOUDY    79  70  74 VRB3      29.97S
ABILENE        PTSUNNY   79  70  74 S21G26    29.99S
DYESS AFB      PTSUNNY   81  66  59 SE23G30   29.97F
JUNCTION       CLOUDY    81  67  62 S20G28    30.00R
SWEETWATER     PTSUNNY   79  69  73 SE18G28   30.00
BROWNWOOD      PTSUNNY   81  70  69 SE15G22   30.02S
COLEMAN        CLOUDY    79  67  67 SE13G20   30.02R
SONORA         PTSUNNY   81  68  65 SE15G22   30.01S
OZONA          CLOUDY    79  66  65 S18G30    29.99S
BRADY          CLOUDY    81  68  65 S17       30.01S
$$

TEXAS PANHANDLE/OKLAHOMA PANHANDLE

CITY           SKY/WX    TMP DP  RH WIND       PRES   REMARKS
AMARILLO       MOSUNNY   66  57  72 NW6       30.02S
BORGER         CLOUDY    67  55  65 N5        30.02S
CANADIAN       CLOUDY    68  60  76 CALM      29.99S
DALHART        SUNNY     64  51  62 SW5       30.03F
DUMAS          MOSUNNY   63  55  75 SW9       30.03S
GUYMON         NOT AVBL
HEREFORD       PTSUNNY   73  57  59 W6        30.04S
PAMPA          CLOUDY    70  60  70 NW3       30.01F
PERRYTON       CLOUDY    65  56  72 NE3       30.00
$$

SOUTHERN PANHANDLE/SOUTH PLAINS/ROLLING PLAINS

CITY           SKY/WX    TMP DP  RH WIND       PRES   REMARKS
LUBBOCK        PTSUNNY   77  69  76 S10       29.97F
SNYDER         CLOUDY    76  70  80 S13       29.98
CHILDRESS      CLOUDY    77  69  76 S14       29.95S
SEMINOLE       PTSUNNY   81  65  59 SW10G16   30.01S
$$

PERMIAN BASIN

CITY           SKY/WX    TMP DP  RH WIND       PRES   REMARKS
MIDLAND        PTSUNNY   82  71  69 S18G25    29.96R
ODESSA         PTSUNNY   81  67  62 S17G23    29.96S HAZE
WINK           SUNNY     85  46  25 VRB6      29.93S
$$

FAR WEST/SOUTHWEST MOUNTAINS/TRANS PECOS

CITY           SKY/WX    TMP DP  RH WIND       PRES   REMARKS
ALPINE         SUNNY     80  41  25 E5        30.10S
DRYDEN           N/A     85  70  60 SE13      29.90S
EL PASO        SUNNY     77  16  10 CALM      30.03S
FORT STOCKTON  MOSUNNY   82  56  40 SW8       29.96S
GUADALUPE PASS SUNNY     77  24  14 W9        30.11S
MARFA          SUNNY     79  55  43 VRB3      30.07F
PECOS          SUNNY     84  56  38 NW6       29.95S
$$

DALLAS/FORT WORTH METROPLEX

CITY           SKY/WX    TMP DP  RH WIND       PRES   REMARKS
DFW AIRPORT    MOSUNNY   85  69  58 S18G25    30.02F
FTW MEACHAM    PTSUNNY   85  70  60 SE20G26   30.02F
DAL-EXECUTIVE  MOSUNNY   84  70  62 S16G22    30.04F
GRAND PRAIRIE  MOSUNNY   84  66  54 S12G20    30.06S
ADDISON        PTSUNNY   84  68  58 S16G22    30.05F
MESQUITE       MOSUNNY   84  70  61 SE17      30.06F
LANCASTER      MOSUNNY   85  70  59 S13       30.07S
$$

NORTH CENTRAL TEXAS

CITY           SKY/WX    TMP DP  RH WIND       PRES   REMARKS
SHRMAN/DENISON MOSUNNY   82  72  69 SE18G24   30.05S
GAINESVILLE    PTSUNNY   81  70  70 S15G24    30.04S
BRIDGEPORT     MOSUNNY   83  68  60 S20G25    30.02
DENTON         PTSUNNY   85  69  58 SE20      30.03S
WAXAHACHIE     PTSUNNY   83  70  65 SE12G17   30.06S
GRANBURY       CLOUDY    84  70  61 SE13G21   30.04S
$$

WESTERN NORTH TEXAS

CITY           SKY/WX    TMP DP  RH WIND       PRES   REMARKS
WICHITA FALLS  PTSUNNY   83  71  67 S26G35    29.95R
VERNON         CLOUDY    83  70  64 S23       29.95
BRECKENRIDGE   CLOUDY    82  68  63 SE17G23   30.00S
COMANCHE       PTSUNNY   81  71  71 S12G17    30.03S
$$

CENTRAL AND SOUTH CENTRAL TEXAS

CITY           SKY/WX    TMP DP  RH WIND       PRES   REMARKS
AUSTIN/BERGSTM PTSUNNY   87  70  56 SE20      30.01S
WACO           CLOUDY    85  69  58 S14       30.04S
HILLSBORO      PTSUNNY   84  73  69 S15       30.05R
TEMPLE         CLOUDY    84  72  67 SE17      30.04S
KILLEEN-GRAY   PTSUNNY   82  70  65 SE20G25   30.02
FORT HOOD      CLOUDY    84  69  61 SE18      30.00R
GEORGETOWN     PTSUNNY   85  71  63 SE14G22   30.05S
LAGO VISTA     PTSUNNY   82  70  66 SE9G18    30.04S
SAN MARCOS     NOT AVBL
NEW BRAUNFELS  PTSUNNY   86  70  58 SE21      30.00S
RANDOLPH AFB   MOSUNNY   86  71  60 SE20G29   30.00
SAN ANTONIO    PTSUNNY   87  70  56 SE22G30   30.00S
STINSON        PTSUNNY   87  67  51 SE24      29.97S
PLEASANTON     NOT AVBL
LA GRANGE      PTSUNNY   87  75  68 SE8       30.01S
GIDDINGS       MOSUNNY   87  73  63 S8G18     30.05R
$$

EAST TEXAS

CITY           SKY/WX    TMP DP  RH WIND       PRES   REMARKS
PARIS          MOSUNNY   82  71  69 S10       30.09S
CLARKSVILLE    NOT AVBL
TYLER          PTSUNNY   84  67  56 S12       30.09R
LONGVIEW       PTSUNNY   86  72  62 S8        30.08S
PALESTINE      PTSUNNY   83  71  66 S8        30.09S
NACOGDOCHES    MOSUNNY   85  73  67 SE7       30.11R
$$

TEXAS HILL COUNTRY AND EDWARDS PLATEAU

CITY           SKY/WX    TMP DP  RH WIND       PRES   REMARKS
LLANO          CLOUDY    84  70  61 SE13      30.04S
HORSESHOE BAY  PTSUNNY   86  70  58 S9        30.03R
KERRVILLE      CLOUDY    79  70  74 S15G23    30.02S
FREDERICKSBRG  CLOUDY    80  66  61 S12G17    30.04R
ROCKSPRINGS    CLOUDY    77  70  78 SE20G29   30.05R
HONDO          CLOUDY    84  69  60 SE21G28   29.99R
UVALDE         CLOUDY    83  71  68 SE16      29.97S
DEL RIO        CLOUDY    84  71  65 SE16G26   29.90S
$$

SOUTHEAST TEXAS

CITY           SKY/WX    TMP DP  RH WIND       PRES   REMARKS
COLLEGE STN    MOSUNNY   86  70  58 S15       30.06R
CALDWELL       PTSUNNY   84  71  65 S12G23    30.06R
CROCKETT         N/A     84  70  61 S9        30.11S
BRENHAM        PTSUNNY   86  71  59 S12G20    30.06R
HUNTSVILLE     PTSUNNY   87  68  52 S10       30.07S
CONROE         MOSUNNY   88  70  55 SE15G22   30.08R
HOUSTON BUSH   PTSUNNY   88  74  63 SE15G25   30.06S
HOUSTON HOBBY  FAIR      88  70  55 SE16G25   30.07R
PERLAND        PTSUNNY   86  72  62 S13G21    30.09R
WHARTON        MOSUNNY   85  67  55 SE14      30.06S
$$

THE UPPER TEXAS COAST

CITY           SKY/WX    TMP DP  RH WIND       PRES   REMARKS
ORANGE         FAIR      86  75  70 SE8       30.11S
PORT ARTHUR    FAIR      87  72  60 SE17G28   30.08R
GALVESTON      PTSUNNY   84  76  76 SE12      30.09R
ANGLETON       PTSUNNY   84  72  67 S18G25    30.07R
BAY CITY       PTSUNNY   85  73  66 S15G24    30.06R
$$

TEXAS COASTAL BEND, RIO GRANDE PLAINS DEEP SOUTH TEXAS

CITY           SKY/WX    TMP DP  RH WIND       PRES   REMARKS
VICTORIA       CLOUDY    86  72  62 SE21      30.01S
BEEVILLE       CLOUDY    89  71  55 SE17G23   29.99R
ROCKPORT         N/A     85  74  69 SE16G28   30.00R
PORT ARANSAS   MOSUNNY   85  76  74 SE16G22   30.01S
PORT LAVACA    PTSUNNY   88  75  66 SE16      30.03R
CORPUS CHRISTI PTSUNNY   89  74  60 SE23G32   29.98R
KINGSVILLE NAS PTSUNNY   89  74  60 SE22G30   29.96
COTULLA        PTSUNNY   87  70  56 SE17G25   29.95S
LAREDO         CLOUDY    89  71  55 SE18G25   29.92S
BROWNSVILLE    PTSUNNY   89  75  63 SE21G32   29.95S
PORT ISABEL    FAIR      89  73  59 SE21G31   29.95S
HEBBRONVILLE   CLOUDY    85  69  57 S16G23    29.96R
MCALLEN        MOSUNNY   91  72  53 SE26G37   29.92F
WESLACO        NOT AVBL
FALFURRIAS     MOSUNNY   92  67  44 SE21G28   29.93F
EDINBURG       PTSUNNY   92  69  45 S16G28    29.94S
$$



USA.gov is the U.S. government's official web portal to all federal, state and local government web resources and services.